Wetbulb
67.90 65.74 64.15 61.19 54.13 52.07 51.10 53.14 57.23 58.48 58.57 61.25 61.10 59.71 58.88 59.63 56.86 54.87 69.07 69.63 71.68 72.09 70.57 71.50 73.04 72.99 72.86 72.41 72.27 71.85 71.66 71.16 70.67 70.15 69.41 68.50 67.65 67.36 67.20 67.22 66.85 66.82 66.68 66.32 66.28 66.66 67.08 67.81 67.92
61.79 60.51 63.18 59.47 51.20 48.96 49.85 56.75 56.87 58.94 60.82 61.75 61.12 60.75 59.50 58.13 61.38 64.12 66.28 69.70 71.43 72.96 71.51 70.47 73.30 73.20 73.29 72.85 72.60 72.43 72.06 71.68 71.11 70.72 70.10 69.36 68.42 67.76 67.52 67.68 67.59 67.60 67.87 67.71 67.48 67.59 67.92 68.35 68.86
65.00 62.23 57.96 55.07 53.63 49.90 51.44 57.94 59.20 61.07 62.41 60.39 59.51 61.93 60.08 59.36 62.77 65.38 69.78 70.39 71.04 73.45 72.66 70.93 73.35 73.30 73.40 73.27 72.95 72.68 72.48 72.03 71.55 70.61 70.56 70.18 69.52 68.89 68.81 68.97 69.02 69.01 69.21 69.28 68.94 68.78 68.73 68.68 69.19
63.30 60.69 58.72 53.49 53.06 56.59 57.26 59.82 60.78 60.71 61.46 61.55 60.54 57.99 61.71 64.53 63.67 65.46 68.40 69.10 68.87 71.75 73.07 73.18 73.20 73.37 73.47 73.60 73.18 72.88 72.66 72.38 71.96 71.15 71.20 70.82 70.19 70.48 70.71 69.90 69.49 69.51 69.66 69.89 69.90 69.61 69.47 69.55 70.36
62.30 58.70 52.86 51.70 52.26 55.60 57.54 60.03 60.69 59.86 59.71 59.73 60.29 57.74 59.76 63.57 65.74 66.18 68.45 69.23 68.51 68.50 72.46 73.57 73.25 73.60 73.82 73.70 73.62 73.15 72.83 72.53 72.18 72.01 71.80 71.45 71.20 71.16 71.04 70.49 70.22 70.52 70.55 70.14 70.08 70.10 69.86 69.78 70.13
56.27 57.12 50.61 49.92 52.60 55.84 57.75 60.39 59.87 59.07 59.19 59.14 58.76 59.15 60.08 65.03 65.44 65.99 67.39 69.69 68.90 69.78 71.59 73.98 73.39 73.25 73.55 73.77 73.57 73.22 72.83 72.65 72.46 72.31 72.31 71.88 71.76 71.81 71.52 71.32 71.11 71.17 70.55 69.77 69.68 69.31 70.00 69.47 69.26
55.24 53.32 50.74 51.79 52.81 54.74 57.50 61.33 59.08 58.36 58.25 58.83 61.35 57.78 60.93 63.80 66.31 68.21 69.40 70.03 70.57 70.33 70.78 74.45 73.54 73.31 73.77 73.52 73.32 73.32 72.92 72.65 72.75 72.58 72.46 72.26 72.31 72.23 72.06 71.89 71.54 71.22 70.69 69.88 68.49 68.10 68.61 69.24 69.63
57.49 54.81 51.54 53.04 52.97 53.14 57.54 58.36 60.04 58.89 57.77 62.27 62.40 58.02 59.05 65.20 67.11 67.25 66.89 67.01 68.44 69.54 69.07 74.14 73.80 72.83 72.49 72.73 73.77 73.69 73.38 73.23 73.16 73.04 72.89 72.69 72.55 72.21 71.99 71.74 72.03 71.20 70.48 68.98 67.86 67.66 67.62 68.58 69.02
59.00 51.14 49.46 51.61 53.00 54.65 58.69 57.04 60.02 61.40 59.20 60.18 60.94 60.55 62.20 64.05 64.51 64.24 65.33 64.89 65.51 66.66 69.36 70.50 73.95 73.61 72.81 71.65 72.52 73.73 73.57 73.49 73.21 72.94 72.89 72.18 70.26 69.17 70.31 70.63 71.14 70.90 70.41 69.01 68.38 67.60 67.53 67.66 67.49
55.76 51.59 51.78 55.71 56.71 56.20 58.13 58.06 58.80 58.84 58.56 58.95 59.92 62.50 63.39 63.84 63.59 63.19 63.19 62.76 63.65 64.18 65.66 69.30 70.05 72.56 72.95 71.99 71.39 72.50 72.40 72.00 71.54 70.55 70.58 70.68 69.98 70.03 70.22 70.15 72.29 70.62 70.34 68.97 68.48 67.99 67.73 66.85 64.83
57.39 52.93 55.67 57.05 58.63 58.87 57.74 58.28 60.22 58.37 57.04 59.21 59.35 61.00 62.54 62.93 64.08 63.18 61.89 62.36 63.33 64.78 64.95 68.30 70.26 71.85 72.25 70.98 71.17 72.61 71.87 70.98 70.32 70.16 70.52 71.16 71.01 71.18 69.91 68.28 68.39 68.21 69.21 67.11 67.93 66.88 66.09 65.62 65.14
52.09 57.09 57.39 58.06 59.25 58.86 57.68 59.44 58.21 58.85 59.15 61.75 62.53 62.90 62.70 62.60 62.90 62.05 61.48 62.05 62.48 63.76 67.48 67.73 71.13 72.32 71.59 71.41 71.49 72.45 72.16 71.06 70.11 70.32 71.67 71.18 71.57 70.58 69.60 68.60 69.57 67.50 67.74 67.58 67.87 66.14 66.32 65.86 67.00
53.62 54.04 56.07 58.26 58.62 58.39 59.26 57.54 57.71 58.39 61.00 62.01 62.25 62.70 62.66 62.61 63.01 63.21 63.18 64.02 65.44 66.06 67.82 68.86 71.94 71.73 72.78 72.82 71.36 71.62 71.86 71.55 71.04 71.58 71.86 71.54 70.23 69.03 70.14 69.57 69.30 68.79 68.62 67.79 66.39 66.55 66.37 65.86 65.22
55.58 55.15 55.32 56.62 56.53 57.18 55.78 56.19 57.29 58.57 60.77 60.97 61.66 61.73 62.23 62.56 62.49 62.19 64.54 66.06 67.92 68.29 69.58 70.80 72.66 72.46 73.10 71.29 73.88 72.88 73.19 72.70 71.92 71.37 71.11 70.95 70.04 69.88 69.60 70.14 68.97 68.28 69.22 68.44 67.52 66.59 65.82 65.50 65.04
54.82 53.01 55.11 55.93 56.34 56.20 57.78 54.87 55.54 59.01 59.78 59.28 60.39 61.13 61.76 62.52 61.93 61.94 65.20 68.39 69.33 69.02 72.09 73.02 73.49 73.61 72.85 73.23 72.69 75.86 73.65 73.17 70.98 70.29 71.78 70.96 70.41 70.53 70.70 69.55 68.97 68.05 68.88 68.22 67.53 66.98 66.45 65.65 65.23
51.77 52.07 49.24 54.30 55.99 56.54 56.27 50.92 56.83 59.25 58.59 58.38 59.15 60.10 61.03 62.05 61.79 64.90 64.22 68.87 69.57 70.60 71.87 73.39 69.51 73.55 73.45 73.82 73.42 72.93 73.30 71.91 72.06 70.28 70.95 70.55 71.23 70.90 70.65 68.74 67.99 68.55 68.66 68.17 66.68 65.92 65.03 64.72 64.63
50.38 46.64 47.81 50.31 54.93 54.60 54.74 52.18 56.89 59.26 58.57 58.37 58.92 58.98 59.91 60.45 62.69 66.26 66.94 67.18 68.77 71.65 72.33 72.16 72.56 72.78 73.15 74.23 73.86 73.45 73.91 70.27 69.96 71.09 70.39 70.70 70.24 70.23 69.28 68.18 68.63 69.29 68.08 67.04 66.57 65.51 65.38 64.13 63.87
45.26 45.95 48.14 48.82 52.96 54.26 52.94 53.02 56.27 58.29 58.08 58.37 58.87 58.80 59.00 59.25 61.63 64.87 66.87 67.23 72.20 70.65 72.17 74.45 73.16 73.12 73.06 73.15 73.61 72.12 71.18 70.69 71.15 70.28 69.84 71.00 70.67 70.20 68.89 68.30 68.94 68.46 67.28 66.47 65.37 64.98 65.16 64.22 62.12
48.77 48.40 47.45 50.78 53.77 52.51 52.30 52.75 54.48 57.34 57.83 57.34 58.40 58.53 58.98 59.91 62.29 64.59 66.52 71.30 69.52 70.52 71.37 72.72 72.17 73.14 72.03 71.43 69.72 68.92 67.59 69.06 68.83 69.65 70.43 70.19 70.27 69.59 69.21 68.36 68.14 67.37 66.43 65.27 65.14 64.60 63.83 62.88 63.82
46.18 46.05 46.77 50.45 52.30 52.08 51.82 51.85 55.16 56.83 57.10 57.74 58.42 58.11 59.13 59.91 62.30 64.37 66.98 68.94 69.35 69.94 70.95 71.28 71.03 72.81 71.64 71.15 70.11 69.08 68.72 68.08 68.48 69.09 70.28 70.11 69.75 69.55 68.65 68.27 67.53 66.68 66.14 65.00 64.65 64.29 62.43 62.61 64.23
45.33 44.78 46.06 46.39 49.82 51.75 50.52 49.56 52.83 55.70 57.45 58.33 58.55 59.38 60.03 60.11 59.53 60.55 66.15 67.78 68.16 68.35 69.08 69.34 70.68 71.39 71.20 70.99 70.22 72.16 70.66 70.91 69.21 68.78 68.36 69.21 68.93 68.89 68.91 67.99 66.81 66.36 66.23 64.54 64.11 64.40 62.95 61.71 62.99
43.34 47.57 46.83 46.72 45.78 43.26 49.82 42.38 50.74 53.62 54.84 56.80 57.74 58.48 58.94 59.80 61.00 62.62 65.69 66.78 67.43 67.52 68.51 69.27 70.40 70.29 70.55 71.92 70.27 70.14 67.78 66.06 67.68 68.45 67.55 68.58 68.66 68.04 68.06 67.55 66.64 66.31 65.96 64.97 64.74 65.27 63.82 63.30 60.31
45.06 48.05 47.27 47.17 45.86 46.36 46.10 44.26 47.60 52.69 51.80 53.53 56.09 57.39 58.77 60.09 61.87 63.19 66.01 66.81 67.17 67.85 67.89 68.78 69.69 69.45 70.75 71.10 70.11 69.55 69.24 68.75 68.81 67.97 68.20 68.73 68.86 67.67 67.54 67.21 66.46 66.15 66.08 65.85 65.08 65.12 63.34 63.45 62.50
48.97 46.75 46.65 47.03 46.24 41.01 45.91 44.92 44.91 48.57 51.77 53.31 55.99 57.26 58.32 60.78 61.66 62.96 66.70 66.97 66.60 67.56 67.79 68.64 68.53 69.28 69.71 70.03 71.13 70.49 68.96 68.43 67.68 67.63 66.95 67.16 68.17 68.17 67.07 66.83 66.60 66.91 66.34 65.21 65.83 65.10 64.52 64.06 63.99
46.08 45.65 39.10 38.18 38.75 38.47 46.98 44.69 46.58 51.85 53.59 54.43 55.41 57.17 59.05 61.07 61.36 64.46 65.02 65.28 65.78 66.41 67.25 67.83 67.99 67.80 68.64 69.17 69.24 69.30 69.04 68.89 68.38 67.83 67.27 67.10 66.82 66.38 66.20 66.58 66.31 66.51 65.45 66.13 65.91 64.81 64.50 64.61 64.06
44.24 45.11 40.34 33.38 36.01 39.42 45.70 41.95 46.74 54.27 55.29 56.53 58.24 58.77 60.13 60.42 64.20 64.54 64.98 65.17 65.29 66.26 66.75 66.84 67.11 67.06 67.95 68.07 68.07 68.86 69.09 67.49 67.96 68.62 67.74 67.00 66.61 66.91 66.98 66.90 66.61 66.18 66.02 65.53 65.59 65.72 64.52 64.41 64.74
43.87 41.16 47.15 43.30 44.20 40.76 44.17 47.88 51.52 53.75 54.70 56.55 56.44 58.63 59.37 62.59 63.91 64.30 64.85 64.98 65.18 65.97 66.49 66.78 66.95 67.19 67.53 67.67 68.25 68.11 68.50 68.93 68.53 68.46 68.71 67.34 68.02 67.00 66.90 66.47 65.67 65.97 65.68 65.68 65.88 64.49 64.24 64.06 64.33
45.37 47.83 41.21 43.69 36.19 35.82 41.95 44.69 46.49 52.43 54.08 55.71 56.65 57.70 59.61 63.15 63.72 63.93 64.46 64.96 65.88 66.40 66.98 67.73 67.65 67.16 67.17 67.15 67.38 66.89 68.01 66.80 66.27 68.14 67.73 67.63 67.59 65.59 65.81 65.88 66.24 65.75 65.38 65.70 65.14 64.83 65.11 63.88 63.44
43.58 42.62 44.40 46.02 43.75 39.07 38.22 42.86 53.45 55.23 55.65 55.07 56.82 57.56 59.37 62.61 63.24 63.90 64.05 65.48 66.04 66.25 66.56 67.04 66.85 66.29 66.13 66.87 67.53 66.25 67.26 65.99 67.14 67.75 67.74 67.17 67.43 65.70 65.75 66.14 66.09 65.49 64.94 65.52 65.03 64.30 64.59 63.40 63.40
46.62 44.55 45.35 41.28 40.99 44.11 43.51 43.97 55.75 55.00 55.21 56.71 57.09 57.23 61.20 63.15 63.27 63.83 64.44 64.85 65.04 65.47 66.02 66.39 66.20 65.16 65.74 66.37 66.36 65.73 65.42 66.23 67.05 66.78 67.13 67.47 66.85 66.20 64.91 64.77 63.82 65.06 65.30 65.19 64.71 64.88 64.06 63.64 62.40
MSLP
1010.49 1010.55 1010.45 1009.46 1008.54 1005.82 1003.19 1001.03 998.95 998.45 998.09 998.08 998.54 998.86 999.25 999.35 999.42 1000.66 1001.71 1002.08 1003.17 1005.12 1006.47 1007.17 1007.51 1007.96 1008.56 1009.08 1009.43 1009.91 1010.47 1010.96 1011.41 1011.69 1011.98 1012.22 1012.42 1012.65 1012.92 1013.09 1013.14 1013.35 1013.67 1013.59 1013.65 1013.74 1013.88 1013.98 1013.99
1009.90 1010.06 1009.69 1008.12 1006.46 1004.01 1001.54 1000.11 1000.17 999.36 999.00 998.79 998.66 998.81 998.97 999.28 999.69 1000.69 1001.65 1002.26 1003.06 1004.90 1006.21 1006.83 1007.53 1007.97 1008.35 1008.81 1009.28 1009.77 1010.25 1010.69 1011.24 1011.58 1011.80 1012.11 1012.37 1012.62 1012.77 1012.97 1013.04 1013.10 1013.30 1013.34 1013.43 1013.56 1013.66 1013.82 1013.84
1009.87 1008.96 1008.10 1006.23 1004.34 1002.52 1000.50 1000.04 999.54 999.52 999.47 998.81 998.41 998.54 998.99 999.63 1000.18 1001.08 1002.00 1002.50 1003.25 1004.83 1006.06 1006.66 1007.34 1007.80 1008.27 1008.70 1009.01 1009.45 1010.00 1010.41 1010.70 1011.27 1011.61 1011.92 1012.17 1012.45 1012.66 1012.84 1012.91 1012.99 1013.05 1013.10 1013.18 1013.29 1013.41 1013.51 1013.59
1009.25 1008.29 1007.50 1005.19 1002.91 1000.61 999.50 999.57 998.90 1000.07 998.27 998.44 998.66 998.78 999.07 999.69 1000.33 1001.07 1001.81 1002.37 1003.01 1004.19 1005.40 1006.42 1007.27 1007.69 1008.08 1008.47 1008.85 1009.22 1009.55 1010.21 1010.59 1011.05 1011.32 1011.65 1011.93 1012.19 1012.46 1012.59 1012.66 1012.73 1012.79 1012.81 1012.92 1013.07 1013.17 1013.25 1013.35
1008.75 1007.09 1005.71 1003.80 1002.06 1000.20 998.72 997.91 997.79 998.61 998.14 998.04 998.15 999.00 999.92 1000.37 1000.76 1001.18 1001.69 1002.18 1002.60 1003.33 1004.28 1005.89 1006.78 1007.37 1007.87 1008.33 1008.78 1009.30 1009.75 1010.10 1010.52 1010.84 1011.03 1011.30 1011.55 1011.84 1012.14 1012.30 1012.39 1012.48 1012.58 1012.60 1012.65 1012.81 1013.01 1013.14 1013.20
1007.86 1006.50 1005.02 1003.15 1001.30 999.70 998.35 998.30 997.95 997.89 998.05 998.02 998.27 999.16 999.64 1000.16 1000.70 1001.19 1001.60 1002.25 1002.52 1002.77 1003.68 1005.03 1006.12 1006.80 1007.43 1007.91 1008.53 1009.07 1009.57 1009.92 1010.32 1010.64 1010.76 1010.98 1011.26 1011.59 1011.84 1011.94 1012.03 1012.15 1012.27 1012.40 1012.47 1012.63 1012.76 1012.88 1013.03
1006.85 1005.74 1004.21 1002.75 1000.89 999.19 998.27 998.33 998.42 998.04 998.02 998.33 998.66 999.11 999.83 1000.27 1000.82 1001.18 1001.55 1001.83 1002.20 1002.47 1003.24 1004.80 1005.83 1006.62 1007.21 1007.70 1008.15 1008.60 1009.17 1009.53 1009.76 1010.20 1010.47 1010.64 1011.00 1011.24 1011.41 1011.50 1011.58 1011.69 1011.86 1012.08 1012.27 1012.43 1012.55 1012.66 1012.76
1006.48 1005.63 1004.03 1002.53 1000.92 999.47 998.49 998.37 998.63 998.45 998.29 998.87 999.32 999.52 999.84 1000.23 1000.35 1000.55 1000.75 1000.71 1001.07 1001.41 1002.01 1003.38 1004.82 1005.95 1006.97 1007.56 1007.82 1008.27 1008.73 1009.09 1009.39 1009.68 1009.95 1010.23 1010.60 1010.85 1010.94 1010.92 1011.08 1011.23 1011.40 1011.66 1011.89 1012.10 1012.27 1012.32 1012.43
1006.17 1005.44 1003.67 1002.43 1001.05 999.65 998.89 998.69 998.45 998.87 998.50 999.16 999.46 999.69 999.75 999.61 999.59 999.86 1000.34 1000.39 1000.31 1000.37 1000.89 1001.84 1003.16 1004.38 1005.45 1006.61 1007.56 1008.01 1008.20 1008.58 1009.06 1009.29 1009.42 1009.77 1010.07 1009.99 1010.05 1010.05 1010.26 1010.75 1011.06 1011.31 1011.54 1011.64 1011.81 1011.92 1012.02
1005.64 1004.47 1002.97 1002.06 1001.04 999.86 999.12 998.74 998.80 999.36 998.84 999.73 999.90 999.37 999.28 999.31 999.58 1000.14 1000.09 1000.07 1000.11 1000.07 1000.13 1000.54 1001.52 1002.42 1004.05 1004.91 1006.20 1007.37 1007.77 1008.01 1008.44 1008.64 1008.84 1009.14 1009.24 1009.19 1009.21 1009.34 1009.69 1010.14 1010.36 1010.79 1010.97 1011.15 1011.40 1011.59 1011.52
1004.94 1003.34 1002.95 1001.55 1000.84 1000.18 999.56 999.29 998.92 998.55 998.44 999.01 998.74 998.79 999.02 999.24 999.50 999.79 999.90 999.89 999.72 999.73 999.74 999.71 1000.75 1001.58 1002.71 1003.43 1004.87 1006.24 1006.83 1007.15 1007.64 1007.75 1007.98 1008.21 1008.39 1008.59 1008.56 1008.89 1009.16 1009.74 1010.17 1010.36 1010.29 1010.71 1011.06 1010.93 1010.94
1003.93 1002.76 1002.59 1001.61 1000.62 1000.09 999.46 999.26 998.82 998.65 998.40 998.34 998.61 998.50 998.69 999.07 999.53 999.73 999.86 999.59 999.50 999.57 999.62 999.59 1000.47 1001.15 1001.98 1002.68 1003.59 1004.92 1005.78 1006.26 1006.69 1006.81 1007.17 1007.44 1007.76 1008.03 1008.34 1008.61 1008.43 1009.10 1009.25 1009.60 1009.75 1010.12 1010.35 1010.47 1010.39
1002.38 1002.06 1001.60 1000.75 1000.18 999.79 999.62 998.96 998.81 998.45 998.42 998.23 998.30 998.39 998.45 998.66 999.06 999.33 999.19 999.07 999.08 999.29 999.38 999.54 1000.17 1000.62 1001.34 1001.95 1002.81 1003.79 1004.73 1005.33 1005.83 1006.04 1006.50 1006.92 1007.56 1007.93 1007.97 1008.20 1008.33 1008.63 1008.77 1009.13 1009.47 1009.54 1009.83 1010.20 1010.10
1002.12 1001.58 1000.77 1000.08 999.51 999.24 999.02 998.43 998.54 998.22 998.24 997.95 997.98 997.96 998.13 998.04 998.20 998.46 998.56 998.67 998.73 998.82 998.92 999.22 1000.09 1000.53 1000.99 1001.62 1002.19 1003.12 1004.00 1004.56 1005.15 1005.45 1005.95 1006.29 1007.02 1007.52 1007.63 1007.82 1008.07 1008.28 1008.43 1008.71 1009.02 1009.29 1009.58 1009.86 1009.98
1002.07 1001.03 1000.12 999.20 999.19 998.43 998.95 997.22 997.40 997.80 997.76 997.43 997.64 997.40 997.44 997.34 997.42 997.47 997.85 998.20 998.39 998.55 998.57 998.75 999.37 1000.37 1001.10 1001.69 1002.28 1002.91 1003.67 1004.20 1004.72 1005.13 1005.55 1006.22 1006.68 1007.24 1007.53 1007.64 1007.77 1008.04 1008.15 1008.43 1008.83 1009.24 1009.60 1009.80 1009.73
1001.58 1001.00 998.92 998.73 999.04 998.07 998.77 995.81 996.98 997.44 997.13 996.97 996.91 996.79 996.62 996.57 996.65 997.01 997.52 997.74 997.86 998.12 998.26 998.42 998.70 1000.15 1001.02 1001.75 1002.45 1003.07 1003.59 1004.10 1004.68 1005.06 1005.42 1005.94 1006.45 1006.86 1007.34 1007.52 1007.59 1007.61 1007.95 1008.51 1008.91 1009.10 1009.29 1009.39 1009.44
1000.70 999.24 998.46 998.15 998.22 998.10 997.56 995.95 996.20 996.60 996.43 996.13 996.29 996.39 996.19 996.27 996.12 996.47 997.09 997.13 997.25 997.43 997.80 998.19 998.76 1000.01 1000.91 1001.79 1002.53 1003.10 1003.59 1004.23 1004.56 1004.85 1005.23 1005.70 1006.09 1006.54 1007.06 1007.29 1007.34 1007.37 1007.92 1008.34 1008.59 1008.90 1009.10 1009.26 1009.40
999.49 999.08 997.37 997.50 997.45 997.18 996.52 995.87 995.40 995.55 995.40 995.10 995.18 995.38 995.66 995.82 995.54 995.89 996.48 996.51 996.75 997.40 998.00 998.43 998.89 999.89 1000.90 1001.73 1002.53 1003.11 1003.68 1004.21 1004.50 1004.74 1005.05 1005.38 1005.65 1005.95 1006.44 1006.84 1007.08 1007.44 1007.89 1008.14 1008.50 1008.68 1008.80 1009.06 1009.33
999.53 998.20 997.55 997.14 996.78 996.43 995.91 995.58 994.73 994.91 994.63 994.42 994.73 994.89 995.18 995.19 995.02 995.20 995.69 996.16 996.95 997.65 998.22 998.84 999.28 999.92 1000.86 1001.64 1002.56 1003.17 1003.66 1004.18 1004.41 1004.52 1004.80 1005.07 1005.39 1005.79 1006.16 1006.56 1006.82 1007.20 1007.57 1007.63 1007.98 1008.33 1008.61 1008.90 1009.00
999.03 998.07 997.34 996.78 996.41 995.94 995.30 994.53 993.96 994.02 993.88 993.65 993.70 993.88 994.23 994.55 994.58 994.86 995.15 996.27 997.06 997.94 998.62 999.27 999.71 1000.23 1000.96 1001.73 1002.51 1002.95 1003.33 1003.72 1003.91 1004.11 1004.33 1004.73 1005.15 1005.60 1005.96 1006.38 1006.65 1006.95 1007.37 1007.50 1007.72 1008.09 1008.40 1008.64 1008.84
998.41 997.56 997.21 996.69 996.93 995.68 995.35 994.22 993.69 993.25 992.95 992.84 992.93 993.06 993.46 993.95 994.24 994.44 994.98 996.26 997.29 998.20 998.89 999.50 999.99 1000.59 1001.20 1001.84 1002.48 1002.69 1003.02 1003.28 1003.61 1003.87 1004.33 1004.55 1005.00 1005.44 1005.75 1006.04 1006.35 1006.73 1007.07 1007.24 1007.28 1007.68 1008.08 1008.30 1008.55
997.02 997.08 997.39 996.71 996.74 995.00 995.79 993.91 992.78 993.07 992.32 992.15 992.07 992.40 992.64 993.02 993.31 993.75 994.45 996.24 997.31 998.23 998.97 999.69 1000.27 1000.94 1001.48 1001.91 1002.43 1002.74 1003.09 1003.40 1003.49 1003.73 1004.27 1004.67 1004.99 1005.25 1005.54 1005.86 1006.17 1006.40 1006.70 1006.78 1007.07 1007.31 1007.44 1007.92 1008.19
995.61 998.02 996.66 996.31 995.86 995.69 995.23 994.75 989.84 992.45 991.57 991.39 991.55 991.68 991.80 992.03 992.35 992.85 994.45 996.07 997.10 998.21 999.06 999.96 1000.65 1001.32 1001.61 1001.99 1002.49 1002.91 1003.15 1003.17 1003.40 1003.68 1004.03 1004.38 1004.84 1005.10 1005.40 1005.64 1005.89 1006.03 1006.34 1006.63 1006.78 1006.92 1007.28 1007.60 1007.91
997.14 997.24 996.85 996.24 995.50 994.36 993.55 994.51 989.52 991.72 991.14 990.90 990.90 990.79 990.86 991.22 991.64 992.23 994.33 996.09 997.07 998.33 999.32 1000.12 1000.94 1001.45 1001.86 1002.40 1002.55 1002.92 1003.13 1003.36 1003.57 1003.84 1004.32 1004.55 1004.77 1005.13 1005.25 1005.34 1005.64 1005.85 1006.20 1006.29 1006.51 1006.73 1007.02 1007.38 1007.58
996.94 996.40 995.79 995.39 994.25 992.43 993.56 992.87 990.23 990.83 990.37 990.29 990.06 990.06 990.36 990.77 991.25 992.67 994.43 995.90 997.23 998.44 999.41 1000.33 1001.08 1001.59 1002.19 1002.51 1002.78 1003.08 1003.33 1003.64 1003.80 1004.04 1004.42 1004.51 1004.74 1005.01 1005.21 1005.29 1005.54 1005.78 1005.90 1006.05 1006.41 1006.67 1006.85 1007.10 1007.25
995.64 995.34 994.16 993.21 992.62 992.47 993.38 990.19 989.45 989.40 989.18 989.33 988.84 989.39 989.97 990.43 991.52 993.04 994.67 995.98 997.23 998.47 999.53 1000.33 1000.99 1001.66 1002.22 1002.58 1002.89 1003.14 1003.42 1003.67 1003.82 1004.14 1004.32 1004.57 1004.73 1004.94 1005.06 1005.22 1005.52 1005.67 1005.72 1005.90 1006.26 1006.56 1006.77 1006.93 1006.87
994.63 994.57 993.01 993.83 992.73 992.24 990.37 989.17 988.63 988.03 988.00 988.17 988.63 989.11 989.65 990.25 991.80 993.40 994.74 996.16 997.27 998.47 999.53 1000.18 1000.83 1001.54 1002.07 1002.46 1002.83 1003.12 1003.31 1003.55 1003.86 1004.13 1004.19 1004.54 1004.64 1004.82 1004.94 1005.20 1005.50 1005.54 1005.55 1005.90 1006.23 1006.32 1006.46 1006.66 1006.73
994.40 993.62 993.94 992.75 992.04 990.81 989.89 988.68 986.80 986.35 986.98 987.11 988.02 988.77 989.51 990.56 992.09 993.68 995.08 996.28 997.42 998.55 999.41 1000.07 1000.73 1001.36 1001.85 1002.31 1002.73 1002.95 1003.25 1003.43 1003.88 1004.14 1004.30 1004.49 1004.63 1004.67 1004.93 1005.32 1005.44 1005.58 1005.78 1006.01 1006.18 1006.22 1006.19 1006.83 1006.89
993.89 992.96 992.35 992.47 991.62 990.47 989.59 988.02 986.56 986.27 986.47 986.93 987.43 988.40 989.26 990.58 992.19 993.68 995.19 996.41 997.52 998.51 999.22 999.95 1000.49 1001.14 1001.67 1002.06 1002.48 1002.84 1003.24 1003.59 1003.93 1004.07 1004.26 1004.50 1004.54 1004.66 1004.98 1005.25 1005.39 1005.57 1005.94 1006.12 1006.15 1006.33 1006.42 1006.86 1007.11
993.85 992.53 992.01 990.80 990.42 990.26 989.62 988.11 986.68 986.57 986.42 986.64 987.04 987.76 989.07 990.67 992.28 993.73 995.13 996.36 997.47 998.36 999.10 999.78 1000.27 1000.84 1001.43 1001.78 1002.21 1002.82 1003.26 1003.68 1003.92 1004.14 1004.35 1004.51 1004.51 1004.65 1004.90 1005.17 1005.53 1005.66 1005.88 1006.19 1006.22 1006.32 1006.38 1006.72 1007.15
Wind_Speed
5 7 4 4 4 8 15 18 19 1 2 6 5 2 12 9 11 5 10 13 21 19 17 20 21 20 19 18 18 16 15 13 11 10 9 9 8 7 7 6 4 4 3 2 2 3 3 4 5
10 9 6 6 7 11 11 6 9 6 22 7 2 3 5 4 14 14 12 9 20 19 16 17 20 20 20 19 18 17 16 15 13 12 11 9 8 7 6 5 5 5 5 4 4 5 6 6 6
13 16 8 6 11 14 13 7 7 8 11 4 4 6 2 4 12 12 11 7 19 17 15 15 22 20 20 19 19 18 18 17 16 14 12 10 9 8 7 7 7 7 7 7 7 7 8 8 8
7 7 8 9 19 21 16 11 13 21 10 4 4 5 4 11 4 7 7 9 17 17 16 16 22 20 20 20 20 19 19 18 16 15 13 11 10 9 9 9 8 9 9 9 10 10 10 9 9
10 8 11 14 19 20 17 10 9 6 9 6 2 4 11 9 11 8 8 7 8 15 16 20 25 21 20 20 19 18 17 17 16 15 14 12 11 10 10 10 10 11 10 10 11 12 11 12 9
8 8 12 15 21 21 17 2 12 9 10 9 5 6 3 13 11 7 7 7 8 9 13 18 25 24 21 20 19 18 17 17 16 15 14 12 11 11 10 10 11 12 11 10 9 9 7 6 8
16 12 16 20 21 22 8 7 12 13 7 10 12 4 7 15 11 5 3 6 7 7 13 15 15 18 21 19 18 18 18 17 17 15 14 12 11 10 10 10 11 12 10 9 9 8 9 8 8
13 14 22 20 19 21 17 7 12 13 8 9 3 3 4 7 6 9 10 11 15 14 14 18 16 15 13 12 17 17 17 17 16 16 15 13 11 11 12 13 13 13 12 11 9 9 10 9 9
19 15 16 22 23 21 18 16 14 20 4 13 10 11 12 12 11 12 7 11 10 7 14 19 19 18 16 14 13 15 18 17 16 15 14 11 7 9 14 16 17 17 13 12 12 11 11 12 12
18 16 25 21 22 21 20 17 19 15 6 12 18 17 15 13 5 11 11 11 12 12 9 17 17 19 18 13 13 14 13 10 10 10 10 8 9 8 11 3 15 13 17 16 14 14 14 12 6
22 23 24 23 22 23 23 22 23 22 18 17 18 15 15 14 12 10 13 15 12 12 11 5 15 15 18 14 11 8 8 8 9 13 10 9 8 8 4 4 7 7 12 6 9 9 7 9 7
26 29 27 28 26 26 26 24 28 25 24 16 22 17 15 12 12 14 16 15 12 12 8 10 17 12 14 11 10 12 9 9 9 11 12 8 4 3 3 3 1 7 6 8 5 5 8 8 7
30 29 29 29 26 27 27 29 28 28 25 23 23 20 20 14 13 17 14 11 9 8 7 8 15 14 12 9 9 10 10 9 10 9 10 6 5 5 4 5 4 5 3 4 6 4 2 3 5
27 29 30 30 29 27 28 29 28 25 25 24 23 21 21 21 15 17 9 8 8 6 6 7 13 11 12 12 7 6 6 7 8 5 6 8 5 4 3 4 4 3 3 1 3 2 1 4 4
30 31 30 30 29 30 26 32 29 25 25 24 27 22 22 20 18 17 7 7 5 6 5 3 8 12 11 9 8 3 5 4 5 4 5 7 6 4 3 3 3 4 4 3 3 4 4 4 5
32 33 31 26 30 33 27 32 25 25 22 24 23 21 20 18 17 6 11 5 6 7 5 5 6 13 11 8 6 5 4 4 2 5 4 6 6 5 4 4 4 4 3 2 3 4 3 4 4
29 23 33 31 28 29 30 33 26 25 25 25 20 20 17 21 11 6 10 8 8 8 7 7 7 14 12 9 6 6 5 4 3 3 4 8 8 8 6 4 4 1 1 3 3 4 4 3 3
21 31 31 28 26 28 31 29 26 23 26 24 21 15 15 22 15 7 10 11 3 6 3 2 6 12 12 7 5 4 3 4 4 4 4 6 5 6 5 4 4 3 3 4 3 5 4 4 4
28 31 33 29 27 29 26 26 28 23 20 22 19 14 17 21 15 10 8 2 7 4 6 7 7 7 9 7 8 6 7 4 4 4 6 5 4 4 4 4 3 3 4 6 5 4 4 4 3
34 31 31 29 27 24 23 26 26 22 22 20 19 17 16 19 12 10 8 9 6 6 7 6 6 8 8 6 5 5 5 7 5 5 5 6 5 5 4 5 3 4 4 5 5 5 3 3 4
32 31 28 31 25 27 24 26 25 24 24 19 18 20 15 14 18 20 6 10 9 8 8 7 7 10 8 7 5 2 4 2 3 2 3 4 3 2 5 5 4 4 4 4 5 5 6 4 4
30 27 29 28 24 20 19 19 25 20 21 20 20 17 16 16 20 16 6 12 11 10 9 9 9 9 7 8 5 5 3 3 2 4 5 5 5 5 4 4 4 4 4 4 4 4 5 4 4
34 21 27 28 26 21 23 16 26 17 17 16 13 14 16 15 15 8 16 14 13 11 10 10 11 10 7 5 7 4 4 2 3 2 4 3 2 3 3 4 4 4 3 2 5 4 5 4 3
25 26 29 27 19 19 26 19 28 19 18 17 16 17 16 13 13 11 17 14 14 12 12 11 12 9 8 5 6 4 6 4 3 2 3 1 1 2 4 4 4 3 4 4 3 4 5 5 5
31 23 17 19 19 22 15 21 22 21 18 18 18 15 14 10 13 18 17 15 14 14 13 12 12 10 9 7 5 4 4 2 1 1 1 2 1 1 2 4 3 3 5 3 4 4 4 5 4
28 25 16 27 17 18 21 27 20 21 21 19 15 10 12 16 14 17 15 15 15 15 14 14 13 11 10 8 7 5 5 4 1 3 1 1 2 3 4 4 3 3 4 4 4 3 4 4 4
29 30 30 22 21 20 16 18 30 27 20 14 7 12 14 14 15 15 15 15 15 15 14 13 13 11 10 8 6 5 5 3 2 4 1 1 3 3 4 4 4 4 3 5 5 4 4 3 3
32 20 26 19 26 24 20 23 14 11 15 12 13 9 11 16 16 15 15 14 14 14 12 13 12 11 9 9 6 5 5 2 4 2 3 3 2 4 5 4 3 2 3 3 3 2 3 4 2
24 27 25 21 18 16 15 13 12 2 9 6 9 13 12 17 16 16 15 15 14 14 13 11 11 11 9 8 7 6 5 3 5 3 3 5 3 6 6 4 4 3 5 4 4 3 4 5 5
29 25 25 20 24 16 13 15 6 2 5 5 11 15 19 17 16 16 16 16 15 13 13 11 10 10 9 8 7 8 5 5 4 5 4 5 4 3 4 4 5 4 4 4 2 4 5 6 8
Wind_Direction
187 209 229 241 250 235 243 246 279 39 262 85 28 347 356 338 14 57 147 140 123 137 159 166 163 167 165 167 167 164 164 165 170 168 166 164 163 164 168 168 167 172 199 196 243 262 256 272 278
207 201 226 259 250 252 245 334 30 282 19 29 260 265 277 13 46 96 125 125 130 138 157 168 170 170 170 174 171 168 169 171 176 177 177 176 179 187 194 204 205 213 239 251 246 252 264 255 259
254 237 261 224 231 249 273 189 201 183 207 275 310 133 217 69 77 82 106 130 126 136 155 170 174 175 176 177 175 175 176 177 179 183 182 184 187 198 210 223 231 237 248 260 265 264 264 260 251
218 224 252 252 264 249 263 178 108 247 230 108 246 340 68 87 100 64 92 148 139 149 157 163 174 180 182 183 182 182 179 180 180 184 185 189 197 208 218 227 236 247 256 261 264 267 262 263 268
246 258 248 255 258 267 288 272 156 282 300 270 181 33 76 98 107 121 123 163 174 164 162 158 173 184 186 187 185 186 184 181 184 188 189 194 203 214 221 230 237 242 251 263 270 272 277 267 276
225 224 259 254 253 257 264 52 295 305 307 287 252 277 111 150 119 114 133 170 203 175 153 158 174 180 188 187 187 185 187 185 187 193 194 197 205 216 226 236 247 240 242 255 267 276 281 269 267
243 244 243 256 271 280 271 282 266 286 304 16 9 156 349 100 113 120 150 177 199 216 155 153 171 182 185 189 187 185 188 189 187 193 196 199 209 217 225 238 246 231 236 244 255 266 271 267 258
238 254 264 267 271 271 288 279 282 289 284 81 34 257 301 137 181 168 216 214 192 196 181 155 162 176 188 190 191 189 189 192 192 192 194 198 209 222 230 233 233 228 224 227 234 252 263 263 256
237 253 253 257 262 272 286 315 305 293 133 294 313 307 302 292 285 319 304 272 276 244 190 167 166 170 178 189 192 192 192 196 196 198 195 190 215 225 226 223 225 215 216 223 226 234 246 253 253
228 243 243 246 269 280 274 263 270 275 261 250 299 268 247 289 344 260 271 288 283 292 281 185 178 167 170 180 185 190 197 199 197 202 196 200 216 221 234 118 200 189 198 209 224 230 239 253 254
231 243 250 257 255 271 275 297 297 291 266 275 280 279 305 302 311 300 286 276 291 305 300 282 177 165 167 177 171 180 194 195 202 202 203 197 209 216 202 212 186 181 199 214 217 226 227 227 225
241 235 241 254 261 270 274 279 286 290 295 282 280 292 293 298 307 298 286 283 295 292 308 296 170 161 175 170 170 174 190 190 200 201 200 198 189 195 219 262 192 177 199 205 218 191 214 235 250
238 245 248 251 258 261 267 272 279 278 284 293 294 288 291 281 265 270 263 284 293 294 307 296 164 169 169 170 172 175 189 187 194 191 190 177 182 218 207 207 211 169 194 198 215 195 205 268 245
247 244 255 259 257 256 263 270 271 275 284 283 277 270 275 266 272 272 277 281 285 271 266 269 154 169 168 180 171 160 174 179 186 173 164 168 173 210 237 206 204 193 199 239 6 314 229 255 268
252 259 261 256 262 263 269 264 260 271 268 269 274 275 271 272 266 258 280 289 307 286 243 218 141 163 168 172 178 148 180 177 167 162 164 159 171 206 259 253 213 195 213 198 224 227 230 239 265
249 253 257 251 254 257 258 263 264 270 276 274 280 280 271 258 260 290 279 293 271 252 229 195 173 154 158 163 175 191 175 160 157 167 164 168 163 190 225 225 224 220 133 168 217 242 243 245 249
244 249 251 249 248 264 258 267 264 252 255 258 258 268 270 277 255 265 274 266 248 216 201 165 155 152 155 155 171 188 155 155 215 173 166 167 179 195 206 228 240 181 135 220 213 232 222 237 245
222 234 241 256 247 248 247 254 261 255 256 259 246 256 266 273 255 248 273 280 70 80 71 123 135 133 153 153 165 163 168 179 191 182 186 187 175 195 211 222 214 155 221 230 206 221 215 220 215
238 240 246 253 252 247 253 260 266 276 274 260 268 266 265 260 259 237 251 252 109 102 101 111 121 130 145 151 172 175 194 176 210 200 193 179 175 204 221 234 171 206 216 234 204 207 215 228 171
242 252 253 263 265 260 261 257 258 247 252 261 262 239 254 281 292 275 259 122 125 125 128 139 148 150 149 148 177 189 188 184 196 192 181 171 175 202 193 216 205 224 224 229 208 197 191 216 172
238 238 245 257 266 266 268 268 269 268 270 264 257 270 251 257 278 281 249 137 135 140 146 156 155 142 151 153 199 189 155 69 123 118 170 182 172 197 197 210 222 211 208 217 212 195 202 195 198
242 232 243 249 251 257 254 269 254 261 263 257 254 253 254 245 250 248 189 139 146 146 146 143 138 149 180 174 162 147 146 181 199 186 117 130 187 177 190 198 245 211 221 199 189 204 204 173 208
246 244 248 247 251 260 253 258 267 270 268 269 276 265 258 246 258 250 132 145 143 137 140 139 140 167 172 149 149 158 243 176 157 148 107 81 68 270 214 220 224 203 195 209 203 202 192 199 209
247 240 251 259 257 245 242 242 263 257 263 270 270 261 245 251 235 225 122 138 131 140 140 142 155 171 136 183 138 180 183 39 45 83 69 195 42 297 229 224 179 199 202 223 209 211 193 211 207
237 235 233 234 232 241 243 240 256 265 266 272 272 266 268 264 248 127 135 141 139 146 142 148 164 142 165 174 130 157 107 99 331 5 36 281 141 212 193 215 163 188 216 199 198 181 197 205 219
225 233 229 223 225 241 239 252 260 253 258 253 278 226 238 232 115 126 140 138 148 147 150 161 158 157 167 157 158 145 149 191 213 87 224 265 93 153 182 145 167 179 207 173 162 170 189 221 229
234 221 236 250 240 245 257 241 235 243 245 240 238 232 235 128 129 136 141 146 147 150 159 156 158 160 168 156 148 151 151 208 129 125 85 100 156 156 164 154 162 192 151 131 169 192 194 172 199
237 228 222 228 231 246 234 240 253 184 224 225 194 222 200 134 136 144 144 152 146 152 159 155 158 158 162 153 152 168 138 197 97 106 130 144 201 181 112 125 177 168 174 146 138 221 163 117 96
226 226 220 244 224 237 247 265 296 81 170 174 194 194 182 140 146 146 149 147 147 153 155 156 163 159 158 156 141 132 144 131 112 115 119 118 249 135 135 154 156 146 155 150 172 169 166 132 111
233 226 231 219 217 228 249 236 68 129 230 173 260 177 143 141 147 147 149 152 152 160 152 160 156 163 161 160 163 125 132 110 100 117 133 133 180 179 134 147 158 144 124 161 171 205 163 158 128